{"data":{"norad_id":48354,"intl_designator":"2021-038B","name":"STARLINK-2674","alt_names":[],"object_type":"PAYLOAD","status":"ACTIVE","operator":null,"country":"US","launch_date":"2021-05-04","launch_site_code":"AFETR","launch_vehicle":null,"mission":null,"orbit_class":"UNKNOWN","rcs_meters":null,"size_class":null,"mass_kg":null,"dimensions":null,"purposes":["comms"],"wikipedia_slug":null,"has_3d_model":false,"image_url":null,"decayed_at":null,"tle_current":{"epoch":"2026-05-25T00:38:31.079040Z","epoch_age_seconds":76015,"freshness":"FRESH","line1":"1 48354U 21038B   26145.02674860  .00005526  00000+0  18965-3 0  9998","line2":"2 48354  53.1607   3.1711 0001125  89.3558 270.7572 15.31708557278771","mean_motion":15.31708557,"eccentricity":0.0001125,"inclination_deg":53.1607,"raan_deg":3.1711,"arg_perigee_deg":89.3558,"mean_anomaly_deg":270.7572,"bstar":0.00018965,"rev_number":27877,"period_min":94.012662749654,"perigee_km":469.94399158034,"apogee_km":471.484983165,"semimajor_km":6848.8514873727,"source":"CELESTRAK","updated_at":"2026-05-25T13:38:16.684406Z"}}}